Location: Burbank
(38.7788°N, 114.0429°W)
Time: 14:29:05
(UTC+00:00)

Vanguard 2 - Pass Details

Date: 16 May 2026
Orbit: 553 x 2894 km, 32.9° (Epoch: 6 June)

Event Time Altitude Azimuth Distance (km) Brightness Sun altitude
Rises 12:35:38 0° 271° (W) 6,732 11.8 1.4°
Reaches altitude 10° 12:40:15 10° 270° (W) 5,688 11.4 2.2°
Maximum altitude 12:57:03 65° 194° (SSW) 2,579 10.2 5.3°
Drops below altitude 10° 13:08:40 10° 116° (ESE) 4,079 12.0 7.4°
Sets 13:11:25 0° 113° (ESE) 4,797 12.4 7.9°
